SB KEPS @ AMSAT $ORB15219.N 2Line Orbital Elements 15219.AMSAT HR AMSAT ORBITAL ELEMENTS FOR AMATEUR SATELLITES IN NASA FORMAT FROM WA5QGD FORT WORTH,TX August 7, 2015 BID: ORB15219.N DECODE 2-LINE ELSETS WITH THE FOLLOWING KEY: 1 AAAAAU 00 0 0 BBBBB.BBBBBBBB .CCCCCCCC 00000-0 00000-0 0 DDDZ 2 AAAAA EEE.EEEE FFF.FFFF GGGGGGG HHH.HHHH III.IIII JJ.JJJJJJJJKKKKKZ KEY: A-CATALOGNUM B-EPOCHTIME C-DECAY D-ELSETNUM E-INCLINATION F-RAAN G-ECCENTRICITY H-ARGPERIGEE I-MNANOM J-MNMOTION K-ORBITNUM Z-CHECKSUM TO ALL RADIO AMATEURS BT AO-07 1 07530U 74089B 15218.83401825 -.00000021 00000-0 14315-3 0 9992 2 07530 101.5252 192.9044 0011662 202.7574 215.1633 12.53615787863604 FO-29 1 24278U 96046B 15218.94609637 -.00000037 00000-0 15802-5 0 9991 2 24278 098.5451 180.8855 0349489 299.3287 090.4792 13.53055194936891 SO-33 1 25509U 98061B 15219.53180754 .00000556 00000-0 96198-4 0 9999 2 25509 031.4329 320.3810 0347601 163.5902 197.6299 14.30031806876773 RS-22 1 27939U 03042A 15219.40129373 .00000519 00000-0 10264-3 0 9997 2 27939 097.8485 019.0336 0012057 221.9195 138.1094 14.66115605633697 HO-68 1 36122U 09072B 15219.09122508 -.00000060 00000-0 -43517-4 0 9999 2 36122 100.1895 262.0714 0007403 005.3089 354.8111 13.16328592271150 AO-73 1 39444U 13066AE 15218.72244869 .00000875 00000-0 11821-3 0 9995 2 39444 097.7269 279.6201 0058861 332.2573 027.5503 14.80379423 90895 EO-79 1 40025U 14033R 15219.28216368 .00001196 00000-0 13869-3 0 9993 2 40025 097.9469 119.6102 0013512 023.2923 336.8902 14.87279932 61392 UO-11 1 14781U 84021B 15218.72433143 .00000408 00000-0 57357-4 0 9993 2 14781 097.7974 274.5521 0007115 265.0900 094.9501 14.82469358689515 AO-16 1 20439U 90005D 15218.77715580 .00000076 00000-0 44007-4 0 9991 2 20439 098.5416 154.2340 0011238 017.4346 040.4374 14.32560690333986 LO-19 1 20442U 90005G 15218.76487725 .00000065 00000-0 39750-4 0 9998 2 20442 098.5123 153.6259 0011930 005.0455 355.0847 14.32751986334183 AO-27 1 22825U 93061C 15218.93420516 .00000048 00000-0 36195-4 0 9995 2 22825 098.7122 169.0677 0008809 153.1095 253.0861 14.29895618140198 IO-26 1 22826U 93061D 15219.46028558 .00000067 00000-0 43171-4 0 9998 2 22826 098.7064 169.7551 0009510 144.2203 215.9617 14.30214252140416 GO-32 1 25397U 98043D 15219.13421394 .00000020 00000-0 27410-4 0 9995 2 25397 098.5232 167.9893 0001710 134.7242 292.8384 14.23555445887043 NO-44 1 26931U 01043C 15218.70714678 .00000013 00000-0 36781-4 0 9999 2 26931 067.0510 046.7745 0005749 272.7384 087.3059 14.30333324723025 SO-50 1 27607U 02058C 15218.75893088 .00000263 00000-0 58085-4 0 9993 2 27607 064.5549 044.3718 0082763 278.5686 080.6044 14.74804454678747 CO-55 1 27844U 03031E 15219.57856998 .00000162 00000-0 93346-4 0 9995 2 27844 098.6958 227.3736 0010305 146.3861 336.4630 14.21831198627749 CO-57 1 27848U 03031J 15218.75942811 .00000102 00000-0 66745-4 0 9995 2 27848 098.7055 226.4995 0010034 155.7507 291.3176 14.21473886627536 AO-51 1 28375U 04025K 15218.83662417 .00000072 00000-0 34166-4 0 9993 2 28375 098.2942 157.8337 0082741 175.7546 184.4364 14.41683725583784 CP3 1 31129U 07012N 15218.85279661 .00000457 00000-0 10787-3 0 9999 2 31129 097.9850 182.4330 0096955 155.1178 262.9897 14.55892770440491 CO-65 1 32785U 08021C 15218.85715131 .00000825 00000-0 97904-4 0 9992 2 32785 097.6451 260.5455 0011872 257.8983 189.5433 14.86992333393766 PRISM 1 33493U 09002B 15219.41656103 .00001621 00000-0 15951-3 0 9991 2 33493 098.2474 059.3188 0016210 157.6508 202.5403 14.93533450354223 SOHLA-1 1 33496U 09002E 15219.37094481 .00000302 00000-0 57028-4 0 9991 2 33496 098.2186 347.7063 0006464 013.6271 001.8750 14.71403695350707 TISAT-1 1 36799U 10035E 15219.28930652 .00001769 00000-0 19524-3 0 9993 2 36799 098.0182 320.2710 0013804 044.9119 336.3501 14.88716486274561 STUDSAT 1 36801U 10035G 15219.38122774 .00013812 00000-0 76991-3 0 9999 2 36801 098.0653 341.7367 0004732 334.3805 061.5749 15.13714179275717 ALMASAT-1 1 38078U 12006B 15219.09652386 .00021671 33672-5 36371-3 0 9998 2 38078 069.4550 111.8648 0471644 187.2304 172.1884 14.81014115182577 CUBEBUG-1 1 39153U 13018D 15219.49168218 .00000908 00000-0 12878-3 0 9997 2 39153 098.0162 303.7091 0018719 088.1033 272.2322 14.79337554123061 ESTCUBE-1 1 39161U 13021C 15219.41415734 .00000617 00000-0 10808-3 0 9998 2 39161 098.0703 301.8926 0010375 145.6177 214.5707 14.71249835120772 DUCHIFAT-1 1 40021U 14033M 15219.54516044 .00001847 00000-0 20591-3 0 9995 2 40021 097.9488 120.2946 0014236 022.3246 337.8587 14.88224788 61441 NANOSATCBR1 1 40024U 14033Q 15219.28108441 .00001559 00000-0 17675-3 0 9996 2 40024 097.9470 119.7729 0013409 022.7820 337.3989 14.87782954 61398 DTUSAT-2 1 40030U 14033W 15219.52224173 .00001240 00000-0 14492-3 0 9992 2 40030 097.9456 119.5528 0012796 016.5460 343.6170 14.86906639 61404 ANTELSAT 1 40034U 14033AA 15219.26861950 .00000786 00000-0 12749-3 0 9994 2 40034 097.9376 110.1771 0059576 317.4302 042.2282 14.72828085 60814 MET-2/21 1 22782U 93055A 15219.12497848 .00000042 00000-0 24576-4 0 9998 2 22782 082.5479 203.2464 0022445 174.6019 233.9263 13.83772641107642 OKEAN-4 1 23317U 94066A 15218.78367071 .00000722 00000-0 78047-4 0 9998 2 23317 082.5363 037.8971 0020642 158.1491 331.4734 14.86765640124822 NOAA-14 1 23455U 94089A 15219.49901777 -.00000009 00000-0 18316-4 0 9994 2 23455 098.7504 299.8921 0008448 297.1657 134.8092 14.14048938 62787 NOAA-15 1 25338U 98030A 15219.53098764 .00000105 00000-0 63163-4 0 9990 2 25338 098.7746 218.2063 0011105 025.5934 334.5793 14.25650742896151 RESURS 1 25394U 98043A 15218.78440703 -.00000032 00000-0 44962-5 0 9993 2 25394 098.4689 172.0528 0002406 108.0365 309.4417 14.24458023887485 FENGYUN1 1 25730U 99025A 15219.14495466 .00001222 00000-0 67122-3 0 9997 2 25730 098.9448 183.9946 0021656 004.9673 062.7380 14.13550897836253 OKEAN-0 1 25860U 99039A 15218.76318439 .00000349 00000-0 58117-4 0 9991 2 25860 098.0988 186.9105 0001605 107.2365 011.8799 14.76102106863449 NOAA-16 1 26536U 00055A 15219.28741546 .00000008 00000-0 28153-4 0 9998 2 26536 098.9388 285.2083 0011589 089.0059 271.2441 14.13104513766870 NOAA-17 1 27453U 02032A 15219.55099544 .00000032 00000-0 31379-4 0 9999 2 27453 098.3439 203.0150 0012520 037.2780 322.9267 14.24894318681973 NOAA-18 1 28654U 05018A 15219.49930675 .00000117 00000-0 88943-4 0 9995 2 28654 099.1868 213.4011 0014334 172.6185 187.5199 14.12224425526319 NOAA-19 1 33591U 09005A 15219.47119956 .00000126 00000-0 93207-4 0 9999 2 33591 098.9931 169.4827 0014666 029.4650 330.7345 14.11963712334727 HUBBLE 1 20580U 90037B 15219.29428002 .00001470 00000-0 82809-4 0 9992 2 20580 028.4691 177.0712 0003096 069.0094 077.2294 15.07599117187538 ISS 1 25544U 98067A 15219.44084501 .00006044 00000-0 95322-4 0 9993 2 25544 051.6449 188.1198 0001253 049.8433 094.2037 15.55033837956015 CO-58 1 28895U 05043F 15218.74139813 .00000474 00000-0 10125-3 0 9994 2 28895 097.8220 043.8742 0018093 133.7668 226.5036 14.62856719520982 FALCON 1 30776U 07006E 15218.67153755 .00005959 00000-0 23495-3 0 9996 2 30776 035.4291 044.5038 0001714 350.1914 090.3049 15.24996689464018 MAST 1 31126U 07012K 15218.92052937 .00000324 00000-0 79366-4 0 9991 2 31126 097.9651 184.6643 0091792 136.9593 294.3866 14.56106886440874 CAPE1 1 31130U 07012P 15218.77803617 .00000397 00000-0 95461-4 0 9992 2 31130 097.9867 181.8185 0097624 157.3423 203.2129 14.55562294440247 COMPASS 1 32787U 08021E 15218.74696471 .00001706 00000-0 17815-3 0 9998 2 32787 097.6474 264.8604 0011720 241.7610 118.2426 14.90935233394041 AAUSAT2 1 32788U 08021F 15218.10165597 .00001707 00000-0 17370-3 0 9996 2 32788 097.6485 265.8339 0011151 240.0415 119.9698 14.91997329394047 DO-64 1 32789U 08021G 15218.81649178 .00004053 00000-0 32642-3 0 9993 2 32789 097.6767 278.2290 0011365 230.8626 221.4662 15.00452412394672 CO-66 1 32791U 08021J 15219.10060019 .00001136 00000-0 12645-3 0 9990 2 32791 097.6470 262.8953 0012399 248.4317 111.5579 14.88941851393895 RS-30 1 32953U 08025A 15219.34419578 .00000010 00000-0 -13620-7 0 9997 2 32953 082.5050 302.4289 0017834 331.8352 028.1763 12.43062377326968 METEOR-M 1 35865U 09049A 15219.09162523 .00000033 00000-0 34062-4 0 9990 2 35865 098.4969 257.6043 0002009 357.4225 062.5121 14.22042202305442 RS-38 1 35869U 09049E 15219.10360218 .00000014 00000-0 25267-4 0 9993 2 35869 098.4870 257.2184 0004099 338.8799 021.2214 14.22304977305499 JUGNU 1 37839U 11058B 15218.46165874 .00000362 00000-0 51033-4 0 9990 2 37839 019.9606 257.7383 0018715 240.3390 271.9983 14.12480809197330 SRMSAT 1 37841U 11058D 15219.53382464 .00000345 00000-0 44660-4 0 9997 2 37841 019.9715 278.9864 0011836 175.1172 322.9256 14.10490607197204 RAX-2 1 37853U 11061D 15218.62755723 .00003253 00000-0 20358-3 0 9993 2 37853 101.7066 094.4815 0193984 288.4518 123.4159 14.96614842204657 AUBIESAT 1 37854U 11061E 15219.20800659 .00003752 00000-0 22670-3 0 9991 2 37854 101.7099 099.1501 0184730 280.8053 199.7986 14.98800259204865 HRBE 1 37855U 11061F 15218.63461991 .00002737 00000-0 16771-3 0 9997 2 37855 101.7081 096.7414 0194296 285.9493 072.0385 14.97599905204706 HORYU-2 1 38340U 12025D 15218.47248427 .00000875 00000-0 13986-3 0 9993 2 38340 098.3175 189.7129 0010732 300.7095 059.3055 14.74418024172942 RS-40 1 38735U 12041C 15219.40151648 .00000040 00000-0 21992-3 0 9991 2 38735 082.4728 028.0386 0017681 069.8967 290.4016 12.42569664137271 PROITERES 1 38756U 12047B 15219.38656102 .00000417 00000-0 68530-4 0 9990 2 38756 098.2237 319.5493 0013172 130.9609 229.2742 14.75881674156559 BEESAT-3 1 39134U 13015E 15219.19506394 .00004317 00000-0 25369-3 0 9998 2 39134 064.8714 254.2498 0028661 245.4697 114.3438 15.12710213126417 BEESAT-2 1 39136U 13015G 15219.50563233 .00004005 00000-0 24745-3 0 9991 2 39136 064.8724 256.0846 0029293 244.3225 115.4872 15.10995491126419 ZACUBE-1 1 39417U 13066B 15218.16819860 .00000704 00000-0 97607-4 0 9990 2 39417 097.7263 278.8018 0059597 335.0679 024.7657 14.79828040 92029 TRITON-1 1 39427U 13066M 15218.76195869 .00000629 00000-0 11045-3 0 9990 2 39427 097.7110 266.5271 0115689 006.4386 353.8274 14.66741735 91273 DELFIN3XT 1 39428U 13066N 15218.12647877 .00001126 00000-0 19356-3 0 9998 2 39428 097.7117 264.1485 0124243 013.6488 346.8025 14.65542590 91050 GOMX-1 1 39430U 13066Q 15219.33545230 .00000784 00000-0 15338-3 0 9990 2 39430 097.7039 258.7463 0154062 029.0775 331.8900 14.58154308 90832 MO-76 1 39436U 13066W 15219.16444059 .00016498 00000-0 10560-2 0 9994 2 39436 097.7422 295.6806 0019863 289.3347 070.5733 15.08489074 93178 LO-74 1 39440U 13066AA 15218.75530524 .00000666 00000-0 10220-3 0 9990 2 39440 097.7204 274.2733 0081432 345.4713 014.4156 14.74639484 91780 PUCPSAT-1 1 39442U 13066AC 15218.83281111 .00001214 00000-0 13454-3 0 9998 2 39442 097.7362 287.6899 0031862 317.7730 042.1034 14.88766699 91407 SPROUT 1 39770U 14029E 15218.55394057 .00001363 00000-0 17020-3 0 9993 2 39770 097.8732 314.6907 0010459 044.1261 316.0791 14.83963261 65103 POPSAT-HIP1 1 40028U 14033U 15219.39227219 .00001130 00000-0 13180-3 0 9999 2 40028 097.9498 119.8080 0015050 019.2009 340.9756 14.87147984 61397 EO-80 1 40032U 14033Y 15219.26432705 .00001216 00000-0 14243-3 0 9994 2 40032 097.9464 119.3073 0012752 017.3411 342.8238 14.86830794 61375 VELOX-1 1 40057U 14034E 15219.38734061 .00001030 00000-0 15730-3 0 9991 2 40057 098.2149 298.3280 0012649 076.9222 283.3397 14.75968489 59430 DAURIA DX 1 1 40071U 14037C 15219.49486148 .00000465 00000-0 68229-4 0 9995 2 40071 098.3542 293.0150 0009828 077.6954 282.5358 14.80459951 58383 UKUBE-1 1 40074U 14037F 15219.40005724 .00001051 00000-0 13870-3 0 9999 2 40074 098.3564 293.8630 0006023 085.2795 274.9105 14.82330148 58421 HODOYOSHI-1 1 40299U 14070B 15219.44174229 .00002172 00000-0 10499-3 0 9995 2 40299 097.4550 300.3223 0011916 319.6242 100.0850 15.19633942 41602 CHUBUSAT-1 1 40300U 14070C 15219.45031604 .00002321 00000-0 11707-3 0 9997 2 40300 097.4516 299.4686 0021107 319.0700 103.6313 15.17954578 41550 QSAT-EOS 1 40301U 14070D 15219.44049323 .00004193 00000-0 20950-3 0 9993 2 40301 097.4477 298.7544 0030622 318.4761 101.4853 15.17609715 41515 TSUBAME 1 40302U 14070E 15219.44710704 .00002077 00000-0 11802-3 0 9997 2 40302 097.4454 297.3079 0041850 322.5872 101.7436 15.13288733 41422 FIREBIRD FU3 1 40377U 15003B 15219.07485255 .00009179 00000-0 44932-3 0 9995 2 40377 099.1144 261.9728 0157160 086.9948 274.9247 15.08203573 28223 FIREBIRD FU4 1 40378U 15003C 15219.07223049 .00008883 00000-0 43444-3 0 9995 2 40378 099.1146 261.9775 0157431 086.9701 274.9524 15.08212084 28221 GRIFEX 1 40379U 15003D 15219.06823994 .00007690 00000-0 38444-3 0 9999 2 40379 099.1161 261.8298 0158824 088.4347 273.5062 15.07390986 28216 LAMBDA-SAT 1 40458U 98067GB 15136.30676273 .20783109 12527-4 14817-2 0 9995 2 40458 051.6075 233.7697 0010355 318.5347 043.1720 16.39926603 21161 NO-84 1 40654U 15219.38924003 .00009142 00000-0 23678-3 0 00868 2 40654 054.9918 358.2514 0243820 016.2655 344.6121 15.14940216011937 NO-83 1 40655U 15219.43202397 .00011754 00000-0 29612-3 0 00945 2 40655 054.9929 357.8362 0241499 016.5525 344.3185 15.15749183011944 DEORBITSAIL 1 40719U 15032E 15219.27604060 .00000358 00000-0 61346-4 0 9995 2 40719 098.0489 108.2356 0016735 162.3244 197.8556 14.74606946 4068 /EX
